Location: Gaast
(52.9002°N, 5.8891°E)
Time: 07:23:33
(UTC+00:00)

COSMOS 2406 - Pass Details

Date: 18 November 2025
Orbit: 845 x 859 km, 71.0° (Epoch: 11 December)

Event Time Altitude Azimuth Distance (km) Brightness Sun altitude
Rises 16:21:03 0° 328° (NNW) 3,418 6.5 -6.7°
Reaches altitude 10° 16:23:48 10° 339° (NNW) 2,480 5.6 -7.0°
Maximum altitude 16:28:51 32° 41° (NE) 1,431 4.0 -7.7°
Drops below altitude 10° 16:33:54 10° 104° (ESE) 2,475 5.1 -8.5°
Sets 16:36:37 0° 114° (ESE) 3,410 5.9 -8.8°
